Flag for Germany Weather past 2 weeks in Halle, Saxony-Anhalt, Germany

Now
63 °F

Clear.


Feels Like: 63 °F
Forecast: 71 / 95 °F
Wind: 10 mph from Southeast

Location: Leipzig-Schkeuditz

Current Time: Jul 3, 2015 at 5:14:14 AM

Latest Report: Jul 3, 2015 at 4:50 AM


Visibility: 10 mi

Pressure: 30.21 "Hg

Humidity: 77%

Dew point: 55 °F

Location of HalleLocation

Historic Weather in Halle — Graph

°F

Halle temperature yesterday

Maximum temperature yesterday: 90 °F (at 4:20 PM)
Minimum temperature yesterday: 61 °F (at 4:50 AM)
Average temperature yesterday: 76 °F

Past Weeks' High & Low Weather Summary

 TemperatureHumidityPressure
High90 °F (Jul 2, 4:20 PM)100% (Jun 18, 5:20 AM)30.21 "Hg (Jun 18, 5:20 AM)
Low48 °F (Jun 25, 3:20 AM)24% (Jul 2, 6:50 PM)29.62 "Hg (Jun 23, 1:50 AM)
Average63 °F68%30.05 "Hg
* Reported Jun 18 3:20 AM — Jul 3 3:50 AM, Halle, Weather by CustomWeather, © 2015

Note: Actual official high and low records may vary slightly from our data, if they occured in-between our weather recording intervals... More about our weather records

Advertising

Halle weather history for previous 24 hours

 ConditionsComfort  
Time TempWeatherWind HumidityBarometerVisibility
3:50 AM
Fri, Jul 3
64 °FClear.8 mph73%30.21 "Hg10 mi
3:20 AM64 °FClear.9 mph73%30.21 "Hg10 mi
2:50 AM64 °FClear.9 mph73%30.21 "Hg10 mi
2:20 AM66 °FClear.10 mph68%30.21 "Hg10 mi
1:50 AM68 °FClear.13 mph64%30.21 "Hg10 mi
1:20 AM66 °FClear.14 mph68%30.21 "Hg10 mi
12:50 AM68 °FClear.13 mph64%30.21 "Hg10 mi
12:20 AM70 °FClear.12 mph57%30.21 "Hg10 mi
11:50 PM
Thu, Jul 2
70 °FClear.13 mph57%30.21 "Hg10 mi
11:20 PM72 °FClear.14 mph53%30.21 "Hg10 mi
10:50 PM72 °FClear.13 mph57%30.21 "Hg10 mi
10:20 PM72 °FSunny.10 mph57%30.21 "Hg10 mi
9:50 PM75 °FSunny.12 mph50%30.21 "Hg10 mi
9:20 PM77 °FSunny.12 mph47%30.18 "Hg10 mi
8:50 PM81 °FSunny.12 mph42%30.18 "Hg10 mi
8:20 PM84 °FSunny.13 mph35%30.18 "Hg10 mi
7:50 PM86 °FSunny.10 mph33%30.18 "Hg10 mi
7:20 PM88 °FSunny.9 mph29%30.18 "Hg10 mi
6:50 PM88 °FSunny.10 mph24%30.18 "Hg10 mi
6:20 PM88 °FSunny.10 mph25%30.18 "Hg10 mi
5:50 PM90 °FSunny.10 mph26%30.18 "Hg10 mi
5:20 PM90 °FSunny.9 mph26%30.18 "Hg10 mi
4:50 PM88 °FSunny.14 mph27%30.18 "Hg10 mi
4:20 PM90 °FSunny.12 mph27%30.18 "Hg10 mi
3:50 PM88 °FPassing clouds.8 mph29%30.18 "HgN/A
3:20 PM88 °FSunny.12 mph27%30.18 "Hg10 mi
2:50 PM88 °FSunny.14 mph27%30.18 "Hg10 mi
2:20 PM86 °FSunny.14 mph31%30.21 "Hg10 mi
1:50 PM88 °FSunny.10 mph31%30.21 "Hg10 mi
1:20 PM86 °FSunny.10 mph33%30.21 "Hg10 mi
12:50 PM86 °FSunny.10 mph33%30.21 "Hg10 mi
12:20 PM84 °FSunny.12 mph35%30.21 "Hg10 mi
11:50 AM82 °FSunny.12 mph37%30.21 "Hg10 mi
11:20 AM81 °FSunny.10 mph42%30.21 "Hg10 mi
10:50 AM81 °FSunny.9 mph42%30.21 "Hg10 mi
10:20 AM79 °FSunny.9 mph45%30.21 "Hg10 mi
9:50 AM75 °FSunny.8 mph50%30.21 "Hg10 mi
9:20 AM75 °FSunny.9 mph54%30.21 "Hg10 mi
8:50 AM75 °FSunny.8 mph54%30.21 "Hg10 mi
8:20 AM72 °FSunny.7 mph57%30.21 "Hg10 mi
7:50 AM70 °FSunny.7 mph60%30.21 "Hg10 mi
7:20 AM66 °FSunny.7 mph64%30.21 "Hg10 mi
6:50 AM64 °FSunny.7 mph68%30.21 "Hg10 mi
6:20 AM63 °FSunny.7 mph73%30.21 "Hg10 mi
5:50 AM61 °FClear.8 mph77%30.21 "Hg10 mi
5:20 AM61 °FClear.9 mph72%30.18 "Hg10 mi
Weather by CustomWeather, © 2015

See weather overviewHow to use our weather pages